Vorticity
15 7 -1 37 4 9 21 1 10 11 -6 23 16 27 -0 1 9 6 21 6 4 5 5 6 4 3 3 8 6 7 6 7 7 7 7 7 8 8 8 8 7 7 7 7 6 7 6 5 5
11 -1 7 9 -4 -7 3 8 -9 -4 15 -1 6 -1 11 22 6 11 9 6 7 5 5 4 2 3 5 7 6 6 7 7 8 8 8 8 8 8 8 9 9 9 9 9 10 10 9 9 7
-9 4 10 24 14 29 15 0 -4 1 6 -3 10 -5 6 6 11 9 5 6 10 5 6 3 3 5 8 7 6 7 8 7 7 8 9 10 9 9 10 10 9 9 9 9 9 9 9 9 7
17 2 23 36 -14 50 9 -2 0 13 1 -1 2 8 5 5 4 6 9 6 4 4 5 4 5 8 6 6 8 8 8 7 8 9 9 9 9 8 8 8 8 7 6 5 4 5 5 5 5
-0 -10 -19 19 5 7 7 4 26 6 12 1 2 5 6 4 1 3 7 9 6 5 5 7 8 6 7 8 8 8 8 8 8 7 7 8 8 8 7 5 4 4 6 7 8 8 8 9 9
10 -16 10 7 3 41 5 21 8 3 7 2 0 4 6 5 4 2 8 9 6 6 7 8 7 7 8 8 8 9 8 7 7 7 7 8 7 4 4 6 7 7 6 6 6 5 5 4 4
-4 17 29 -6 8 -3 8 9 4 3 8 1 3 17 8 8 3 1 3 7 8 6 9 7 7 8 9 8 8 8 7 7 8 7 6 5 3 5 6 6 6 5 5 5 5 4 4 4 5
21 13 3 19 2 30 3 3 14 11 10 9 -1 1 5 10 9 4 1 1 3 8 8 6 7 8 8 8 8 7 7 7 8 8 6 3 5 6 6 5 4 3 4 4 3 3 3 4 4
4 11 -3 8 15 10 -8 4 3 0 10 -5 -7 -4 1 16 10 6 2 1 1 4 10 6 6 8 7 7 7 7 8 8 8 8 4 6 6 5 5 3 2 2 3 2 3 2 2 2 3
4 8 12 28 15 14 -6 14 8 8 11 5 8 19 16 10 10 8 4 2 2 2 6 8 7 8 7 7 7 7 8 8 7 4 3 6 6 5 4 1 2 2 2 3 2 2 3 3 4
22 10 22 10 1 13 35 2 9 10 6 2 1 -2 3 14 10 11 5 2 3 3 3 8 8 8 8 8 7 7 8 8 5 4 6 7 5 3 1 2 1 2 3 2 4 3 2 2 3
5 20 1 5 -20 18 2 56 7 6 2 29 -2 6 4 3 14 12 7 5 5 4 3 6 9 7 8 8 8 7 7 7 5 7 7 7 5 4 3 4 3 3 2 3 2 2 3 4 5
46 10 13 -4 18 2 11 11 15 11 8 7 5 9 4 1 10 9 8 9 5 5 4 5 8 6 8 9 10 8 8 6 5 7 6 6 5 3 3 4 3 2 3 3 3 4 5 6 6
-1 3 12 26 27 1 2 0 1 7 2 -3 11 5 2 3 13 9 7 13 8 5 6 5 6 7 8 8 8 11 6 6 6 6 6 6 5 5 5 3 4 2 3 3 4 4 5 7 6
10 20 -9 -7 1 11 -4 21 10 10 5 -21 3 19 16 24 12 4 6 11 8 4 6 6 5 8 9 6 9 7 10 7 5 6 6 6 6 5 5 5 3 3 5 5 6 5 6 6 6
3 4 10 12 24 -1 23 -0 39 3 8 -5 16 6 10 12 21 1 3 5 7 5 7 6 5 8 9 7 9 6 9 6 7 7 6 5 6 6 5 4 4 6 6 5 6 6 7 9 11
17 -12 -2 10 -12 12 13 5 30 11 -3 19 16 2 31 5 18 3 1 5 10 11 6 8 5 6 8 8 9 7 8 8 7 7 6 6 6 5 5 4 5 6 6 7 7 7 9 12 9
6 -32 11 18 15 -2 -6 20 8 32 12 9 3 -10 -9 19 -4 8 -0 4 8 11 6 8 6 7 7 9 9 6 9 8 7 7 6 5 5 6 5 4 6 6 7 7 7 8 9 8 6
5 6 25 -27 8 16 -8 8 19 2 20 -14 -7 1 -19 23 22 -8 14 3 11 11 7 7 7 9 9 11 11 8 9 8 9 6 7 6 5 6 6 7 7 7 8 7 8 7 4 5 5
7 12 15 -7 10 67 6 -6 9 19 21 3 13 21 8 7 28 19 -20 12 8 7 3 7 6 12 11 11 11 7 9 6 8 7 8 7 6 7 9 7 7 9 7 8 7 8 8 11 13
10 -0 9 7 -5 28 4 45 -6 25 1 13 18 20 0 15 -1 34 -7 -2 3 7 3 7 4 9 12 11 12 11 9 12 13 9 8 9 8 8 8 8 6 7 8 10 7 6 5 9 8
2 10 -8 18 10 2 -7 -5 12 11 5 1 -6 22 27 -22 42 16 -3 4 -0 4 4 5 4 8 11 11 12 12 12 11 8 10 10 10 8 8 7 5 8 7 8 8 6 7 11 8 6
11 4 1 18 3 4 19 25 -7 48 -6 15 16 22 4 18 2 -21 20 21 8 10 20 7 6 6 9 9 7 8 7 4 3 8 7 7 7 6 6 7 5 9 10 8 3 10 8 7 7
29 -4 -3 -0 3 28 8 -2 15 18 2 50 4 20 23 -3 19 8 9 -2 -2 5 9 8 8 6 8 5 4 6 4 3 4 7 4 6 5 5 5 3 5 8 9 7 6 4 10 8 8
12 17 18 22 31 -12 5 28 40 -15 30 -1 12 10 5 3 27 18 18 -7 -0 3 6 32 8 8 6 3 3 4 1 6 2 1 5 4 5 3 6 1 1 6 7 10 10 4 10 9 7
-0 8 -16 11 9 -24 -13 11 -22 10 41 5 -5 -0 5 11 -5 8 18 -8 -2 4 8 15 20 8 6 2 4 1 -6 7 -0 5 6 6 3 5 6 1 -0 2 7 9 9 5 10 7 8
10 -6 4 3 7 42 9 12 14 32 27 -1 7 -4 6 20 17 23 1 14 6 3 3 10 30 6 9 1 2 -7 6 4 5 7 3 7 4 21 3 2 2 1 5 7 10 9 9 7 7
2 28 16 15 8 7 10 12 -5 16 0 1 12 10 6 -13 22 9 24 -2 10 6 9 15 18 7 7 4 2 -8 6 4 8 6 1 9 7 13 1 4 3 4 5 6 9 7 9 8 7
9 9 -2 0 6 -2 7 12 34 -26 -0 -6 -9 -8 -8 4 20 7 13 29 12 7 5 5 16 5 9 3 2 -11 1 7 5 5 3 8 13 10 1 4 3 5 4 5 10 7 9 8 7
-5 7 19 -11 20 -26 -3 2 -5 -1 -13 15 10 8 1 2 18 17 11 10 19 7 6 5 23 7 9 8 5 2 -6 10 6 4 7 9 11 6 7 0 3 3 3 9 7 9 9 7 7
Height
3186 3187 3184 3182 3186 3180 3180 3181 3179 3180 3182 3182 3180 3181 3182 3183 3184 3187 3185 3187 3188 3190 3191 3192 3191 3191 3190 3189 3188 3188 3187 3187 3186 3186 3185 3185 3184 3184 3184 3184 3183 3183 3183 3183 3183 3183 3182 3181 3180
3188 3189 3187 3186 3187 3181 3183 3181 3180 3180 3182 3182 3179 3180 3183 3183 3184 3183 3186 3187 3189 3190 3191 3192 3191 3190 3190 3189 3188 3188 3188 3187 3186 3186 3185 3185 3184 3184 3184 3184 3184 3184 3184 3184 3184 3183 3183 3182 3180
3188 3186 3186 3184 3185 3183 3182 3182 3181 3182 3182 3182 3182 3183 3184 3184 3185 3185 3186 3189 3191 3191 3191 3191 3190 3190 3189 3188 3188 3188 3187 3186 3186 3186 3185 3185 3185 3184 3185 3186 3185 3185 3185 3185 3185 3184 3184 3183 3181
3188 3186 3185 3183 3182 3181 3183 3182 3182 3181 3182 3182 3182 3183 3184 3185 3185 3186 3187 3189 3190 3190 3191 3190 3189 3189 3189 3189 3188 3188 3187 3186 3185 3185 3186 3186 3186 3186 3187 3187 3187 3187 3187 3186 3186 3186 3185 3184 3182
3187 3186 3187 3186 3184 3186 3184 3183 3182 3181 3182 3181 3181 3182 3183 3185 3185 3186 3187 3189 3189 3190 3190 3189 3189 3188 3188 3188 3188 3187 3187 3186 3186 3185 3186 3187 3187 3188 3188 3188 3188 3188 3188 3187 3187 3186 3186 3185 3184
3186 3187 3188 3191 3183 3188 3185 3184 3183 3182 3181 3181 3181 3182 3183 3185 3185 3186 3187 3189 3189 3189 3189 3189 3189 3188 3188 3188 3188 3187 3187 3186 3186 3187 3187 3188 3188 3189 3189 3189 3189 3189 3189 3188 3188 3188 3187 3185 3185
3186 3187 3187 3190 3188 3184 3186 3185 3184 3182 3181 3181 3182 3183 3184 3184 3184 3186 3187 3189 3190 3188 3188 3188 3188 3188 3188 3188 3188 3187 3187 3187 3188 3187 3187 3189 3189 3190 3190 3190 3190 3190 3190 3190 3190 3189 3188 3186 3184
3184 3191 3189 3186 3188 3187 3187 3188 3187 3184 3183 3182 3183 3183 3183 3184 3184 3184 3186 3188 3188 3189 3188 3187 3187 3187 3187 3188 3188 3188 3188 3188 3188 3189 3190 3190 3190 3191 3191 3191 3192 3191 3191 3191 3191 3190 3189 3188 3185
3187 3190 3188 3187 3186 3186 3187 3187 3186 3186 3185 3184 3182 3182 3183 3183 3183 3185 3185 3186 3187 3188 3188 3187 3187 3187 3187 3187 3187 3188 3188 3189 3189 3190 3191 3191 3191 3192 3192 3192 3193 3192 3192 3192 3191 3190 3190 3188 3186
3187 3188 3187 3187 3187 3186 3186 3184 3185 3184 3184 3181 3182 3183 3182 3182 3182 3183 3184 3185 3185 3187 3187 3186 3186 3187 3187 3187 3187 3188 3189 3189 3190 3191 3191 3192 3192 3193 3193 3193 3193 3192 3193 3192 3191 3191 3189 3187 3184
3185 3185 3185 3186 3185 3185 3186 3184 3182 3183 3180 3176 3179 3182 3181 3180 3180 3180 3182 3183 3184 3185 3186 3187 3186 3186 3186 3187 3188 3188 3189 3190 3191 3192 3192 3193 3193 3193 3193 3193 3193 3193 3193 3192 3191 3189 3188 3186 3185
3185 3184 3184 3183 3184 3184 3184 3183 3181 3181 3179 3177 3178 3180 3180 3179 3177 3178 3179 3181 3183 3184 3185 3185 3186 3186 3186 3186 3188 3188 3189 3190 3191 3192 3193 3193 3193 3193 3193 3193 3194 3193 3192 3191 3190 3189 3187 3185 3183
3182 3184 3184 3181 3183 3182 3183 3184 3184 3180 3178 3178 3179 3178 3176 3176 3176 3176 3178 3180 3182 3183 3184 3184 3185 3185 3185 3186 3187 3188 3189 3190 3190 3192 3192 3193 3193 3193 3193 3194 3193 3192 3190 3189 3188 3186 3185 3182 3180
3182 3182 3180 3179 3180 3180 3180 3181 3182 3178 3175 3177 3177 3177 3175 3174 3174 3172 3174 3177 3180 3182 3183 3182 3183 3184 3184 3185 3186 3187 3188 3189 3190 3191 3192 3192 3193 3193 3193 3192 3191 3190 3189 3188 3186 3185 3183 3179 3176
3178 3179 3177 3178 3179 3180 3179 3179 3177 3174 3175 3175 3171 3171 3173 3173 3173 3170 3173 3175 3178 3181 3182 3182 3181 3182 3183 3184 3185 3186 3188 3189 3189 3190 3191 3192 3192 3192 3192 3191 3190 3189 3188 3186 3184 3182 3180 3178 3175
3176 3176 3176 3177 3177 3178 3177 3175 3174 3172 3171 3170 3166 3167 3171 3171 3172 3171 3172 3174 3177 3180 3181 3181 3179 3180 3182 3182 3184 3184 3187 3188 3189 3190 3190 3190 3191 3191 3190 3189 3188 3188 3186 3183 3183 3180 3178 3176 3173
3175 3175 3176 3177 3176 3176 3174 3172 3173 3170 3170 3170 3168 3172 3169 3165 3168 3172 3170 3172 3175 3179 3180 3180 3180 3178 3179 3180 3182 3183 3185 3187 3188 3189 3189 3189 3190 3189 3189 3187 3186 3186 3184 3182 3180 3177 3175 3174 3173
3173 3174 3176 3177 3172 3172 3172 3169 3170 3169 3171 3170 3170 3166 3161 3157 3174 3175 3173 3172 3175 3177 3178 3179 3178 3178 3176 3178 3180 3181 3184 3186 3187 3187 3188 3188 3188 3188 3187 3185 3184 3182 3181 3179 3177 3174 3172 3172 3170
3169 3172 3171 3172 3170 3171 3169 3166 3165 3165 3165 3167 3166 3162 3157 3159 3171 3176 3174 3172 3174 3177 3176 3177 3176 3176 3174 3176 3178 3179 3182 3184 3186 3185 3186 3186 3186 3186 3184 3183 3181 3180 3178 3176 3174 3172 3169 3168 3168
3168 3168 3167 3167 3166 3166 3165 3165 3163 3161 3159 3160 3163 3162 3159 3161 3164 3171 3173 3172 3173 3175 3174 3175 3173 3173 3172 3174 3176 3177 3180 3181 3184 3184 3184 3184 3183 3182 3182 3180 3178 3179 3177 3174 3171 3170 3166 3164 3163
3164 3165 3164 3164 3164 3163 3163 3162 3160 3158 3156 3156 3157 3157 3158 3157 3162 3164 3171 3172 3170 3170 3171 3174 3172 3171 3171 3172 3175 3176 3178 3180 3181 3182 3182 3181 3181 3180 3179 3178 3175 3175 3173 3171 3168 3167 3164 3162 3159
3162 3163 3163 3162 3161 3161 3161 3161 3156 3151 3153 3154 3157 3159 3153 3152 3155 3162 3168 3166 3166 3168 3168 3168 3170 3169 3169 3172 3173 3175 3176 3178 3179 3179 3179 3179 3179 3178 3177 3176 3175 3172 3169 3168 3166 3163 3161 3159 3157
3160 3161 3160 3159 3159 3159 3157 3159 3156 3155 3155 3154 3154 3154 3152 3151 3152 3154 3152 3164 3163 3162 3165 3165 3166 3167 3168 3170 3172 3173 3174 3175 3176 3177 3177 3177 3177 3176 3175 3174 3173 3170 3167 3165 3163 3161 3159 3157 3154
3156 3157 3157 3157 3158 3158 3154 3159 3150 3153 3156 3153 3151 3150 3147 3149 3151 3151 3150 3159 3161 3161 3161 3162 3164 3165 3166 3168 3170 3172 3172 3173 3174 3174 3175 3175 3174 3174 3173 3172 3170 3167 3165 3162 3160 3159 3156 3153 3150
3153 3154 3155 3158 3158 3156 3152 3154 3155 3146 3149 3150 3149 3147 3148 3146 3146 3147 3150 3153 3155 3154 3159 3159 3161 3162 3164 3166 3167 3170 3170 3170 3171 3172 3172 3172 3172 3171 3171 3169 3167 3164 3162 3160 3157 3156 3153 3150 3147
3149 3151 3152 3157 3157 3151 3151 3150 3150 3147 3145 3146 3147 3146 3147 3145 3141 3140 3141 3144 3150 3153 3155 3157 3158 3159 3161 3162 3164 3166 3167 3165 3168 3169 3168 3169 3169 3168 3168 3166 3163 3162 3160 3157 3154 3152 3149 3146 3142
3144 3145 3150 3149 3149 3150 3149 3148 3148 3144 3144 3145 3147 3148 3148 3148 3148 3138 3139 3141 3144 3145 3149 3151 3153 3156 3157 3159 3162 3164 3162 3164 3164 3164 3163 3163 3166 3167 3164 3163 3161 3159 3156 3153 3150 3148 3144 3141 3137
3137 3143 3145 3145 3148 3149 3146 3148 3147 3144 3143 3143 3143 3144 3145 3146 3146 3143 3135 3136 3141 3146 3148 3150 3150 3152 3154 3155 3158 3159 3159 3160 3159 3158 3157 3158 3162 3163 3160 3159 3157 3155 3152 3149 3146 3144 3140 3137 3133
3135 3137 3139 3141 3142 3143 3146 3145 3146 3144 3144 3142 3140 3141 3142 3142 3142 3139 3136 3138 3141 3143 3144 3147 3147 3147 3149 3153 3153 3154 3155 3154 3153 3151 3151 3154 3157 3157 3156 3154 3153 3151 3149 3145 3141 3139 3135 3132 3128
3129 3131 3135 3136 3138 3137 3138 3139 3140 3139 3140 3139 3136 3137 3138 3138 3139 3137 3135 3135 3137 3139 3141 3141 3142 3143 3145 3147 3149 3150 3151 3149 3148 3147 3147 3149 3152 3151 3151 3150 3149 3147 3145 3141 3137 3134 3131 3127 3123